Change the Weather History Date:

Tuesday, May 6, 2014

  Actual Average (KJLN) Record (KJLN)
Temperature  
Mean Temperature 74 °F 64 °F  
Max Temperature 86 °F 75 °F 90 °F (1952)
Min Temperature 62 °F 53 °F 33 °F (1992)
Degree Days  
Heating Degree Days 0 3  
Month to date heating degree days 22  
Since 1 July heating degree days 4025  
Cooling Degree Days 9 3  
Month to date cooling degree days 14  
Year to date cooling degree days 68  
Growing Degree Days 24 (Base 50)    
Moisture  
Dew Point 59 °F    
Average Humidity 58    
Maximum Humidity 78    
Minimum Humidity 40    
Precipitation  
Precipitation 0.00 in 0.20 in 3.02 in (1973)
Month to date precipitation 1.17  
Year to date precipitation 13.41  
Sea Level Pressure  
Sea Level Pressure 29.71 in    
Wind  
Wind Speed 12 mph (South)    
Max Wind Speed 22 mph    
Max Gust Speed 29 mph    
Visibility 10 miles    
Events      
T = Trace of Precipitation, MM = Missing Value Source: NWS Daily Summary

Daily Weather History Graph

Daily Weather History Graph

Search for Another Location

Airport or City:

Trip Planner

Search our weather history database for the weather conditions in past years. The results will help you decide how hot, cold, wet, or windy it might be!

Date:

Astronomy

May. 06, 2014 Rise Set
Actual Time 6:16 AM CDT 8:09 PM CDT
Civil Twilight 5:48 AM CDT 8:37 PM CDT
Nautical Twilight 5:14 AM CDT 9:12 PM CDT
Astronomical Twilight 4:37 AM CDT 9:48 PM CDT
Moon 12:31 PM CDT (5/6) 1:30 AM CDT (5/6)
Length of Visible Light 14h 49m
Length of Day
13h 52m
Waxing Crescent, 46% of the Moon is Illuminated
May 6
Waxing Crescent
May 6
First Quarter
May 14
Full
May 21
Last Quarter
May 28
New

Hourly Weather History & Observations

Time (CDT) Temp. Heat Index Dew Point Humidity Pressure Visibility Wind Dir Wind Speed Gust Speed Precip Events Conditions
12:15 AM 69.8 °F - 55.4 °F 60% 29.77 in 10.0 mi South 10.4 mph - N/A   Clear
12:35 AM 68.0 °F - 55.4 °F 64% 29.77 in 10.0 mi South 9.2 mph - N/A   Clear
12:55 AM 68.0 °F - 55.4 °F 64% 29.77 in 10.0 mi South 8.1 mph - N/A   Clear
1:15 AM 66.2 °F - 55.4 °F 68% 29.77 in 10.0 mi South 5.8 mph - N/A   Clear
1:35 AM 64.4 °F - 55.4 °F 73% 29.77 in 10.0 mi South 5.8 mph - N/A   Clear
1:55 AM 64.4 °F - 55.4 °F 73% 29.76 in 10.0 mi South 6.9 mph - N/A   Clear
2:15 AM 64.4 °F - 55.4 °F 73% 29.76 in 10.0 mi South 6.9 mph - N/A   Clear
2:35 AM 64.4 °F - 55.4 °F 73% 29.76 in 10.0 mi South 8.1 mph - N/A   Clear
6:55 AM 62.6 °F - 53.6 °F 72% 29.74 in 10.0 mi South 8.1 mph - N/A   Clear
7:15 AM 64.4 °F - 53.6 °F 68% 29.74 in 10.0 mi SSE 9.2 mph - N/A   Clear
7:35 AM 64.4 °F - 53.6 °F 68% 29.75 in 10.0 mi SSE 9.2 mph - N/A   Clear
7:55 AM 68.0 °F - 55.4 °F 64% 29.74 in 10.0 mi SSE 9.2 mph - N/A   Clear
8:15 AM 69.8 °F - 55.4 °F 60% 29.74 in 10.0 mi SSE 10.4 mph 17.3 mph N/A   Clear
8:55 AM 71.6 °F - 57.2 °F 60% 29.73 in 10.0 mi South 12.7 mph 20.7 mph N/A   Clear
9:15 AM 73.4 °F - 57.2 °F 57% 29.73 in 10.0 mi South 15.0 mph 19.6 mph N/A   Clear
9:35 AM 73.4 °F - 59.0 °F 61% 29.73 in 10.0 mi South 13.8 mph 21.9 mph N/A   Clear
9:55 AM 73.4 °F - 57.2 °F 57% 29.73 in 10.0 mi South 17.3 mph - N/A   Clear
10:15 AM 75.2 °F - 59.0 °F 57% 29.72 in 10.0 mi South 16.1 mph 19.6 mph N/A   Clear
10:35 AM 77.0 °F - 59.0 °F 54% 29.73 in 10.0 mi South 15.0 mph - N/A   Clear
10:55 AM 78.8 °F - 59.0 °F 51% 29.72 in 10.0 mi South 16.1 mph - N/A   Clear
11:15 AM 78.8 °F - 59.0 °F 51% 29.72 in 10.0 mi South 16.1 mph 20.7 mph N/A   Clear
11:35 AM 80.6 °F 81.5 °F 60.8 °F 51% 29.71 in 10.0 mi South 13.8 mph 24.2 mph N/A   Clear
11:55 AM 80.6 °F 81.5 °F 60.8 °F 51% 29.71 in 10.0 mi South 13.8 mph 23.0 mph N/A   Clear
12:15 PM 82.4 °F 82.9 °F 60.8 °F 48% 29.71 in 10.0 mi South 18.4 mph 21.9 mph N/A   Clear
12:35 PM 82.4 °F 82.9 °F 60.8 °F 48% 29.70 in 10.0 mi South 15.0 mph 19.6 mph N/A   Clear
12:55 PM 84.2 °F 84.4 °F 60.8 °F 45% 29.69 in 10.0 mi South 18.4 mph 23.0 mph N/A   Clear
1:15 PM 84.2 °F 84.4 °F 60.8 °F 45% 29.69 in 10.0 mi South 19.6 mph - N/A   Clear
1:35 PM 86.0 °F 86.1 °F 60.8 °F 43% 29.68 in 10.0 mi South 16.1 mph 21.9 mph N/A   Clear
1:55 PM 86.0 °F 86.1 °F 60.8 °F 43% 29.68 in 10.0 mi SSW 17.3 mph 25.3 mph N/A   Clear
2:15 PM 86.0 °F 85.4 °F 59.0 °F 40% 29.69 in 10.0 mi SSW 17.3 mph 25.3 mph N/A   Clear
2:35 PM 86.0 °F 86.1 °F 60.8 °F 43% 29.69 in 10.0 mi South 18.4 mph 26.5 mph N/A   Clear
3:15 PM 86.0 °F 86.1 °F 60.8 °F 43% 29.67 in 10.0 mi South 16.1 mph 24.2 mph N/A   Clear
3:35 PM 86.0 °F 86.1 °F 60.8 °F 43% 29.66 in 10.0 mi South 19.6 mph 24.2 mph N/A   Clear
3:55 PM 86.0 °F 86.1 °F 60.8 °F 43% 29.66 in 10.0 mi South 18.4 mph 23.0 mph N/A   Clear
4:15 PM 86.0 °F 86.1 °F 60.8 °F 43% 29.66 in 10.0 mi South 15.0 mph 23.0 mph N/A   Clear
4:35 PM 84.2 °F 84.4 °F 60.8 °F 45% 29.65 in 10.0 mi South 21.9 mph 26.5 mph N/A   Clear
4:55 PM 84.2 °F 84.4 °F 60.8 °F 45% 29.65 in 10.0 mi SSE 18.4 mph 28.8 mph N/A   Clear
5:15 PM 82.4 °F 82.9 °F 60.8 °F 48% 29.65 in 10.0 mi South 19.6 mph 25.3 mph N/A   Clear
5:35 PM 82.4 °F 82.9 °F 60.8 °F 48% 29.65 in 10.0 mi SSE 16.1 mph 25.3 mph N/A   Clear
5:55 PM 82.4 °F 82.9 °F 60.8 °F 48% 29.65 in 10.0 mi South 16.1 mph 21.9 mph N/A   Clear
6:15 PM 82.4 °F 82.9 °F 60.8 °F 48% 29.65 in 10.0 mi South 17.3 mph 23.0 mph N/A   Clear
6:35 PM 80.6 °F 81.5 °F 60.8 °F 51% 29.65 in 10.0 mi South 15.0 mph 25.3 mph N/A   Clear
6:55 PM 80.6 °F 81.5 °F 60.8 °F 51% 29.65 in 10.0 mi SSE 16.1 mph 21.9 mph N/A   Clear
7:15 PM 78.8 °F - 60.8 °F 54% 29.66 in 10.0 mi South 11.5 mph - N/A   Clear
7:35 PM 77.0 °F - 62.6 °F 61% 29.66 in 10.0 mi SSE 12.7 mph - N/A   Clear
7:55 PM 75.2 °F - 62.6 °F 65% 29.67 in 10.0 mi SSE 15.0 mph 19.6 mph N/A   Clear
8:15 PM 73.4 °F - 62.6 °F 69% 29.67 in 10.0 mi SSE 15.0 mph - N/A   Clear
8:35 PM 73.4 °F - 60.8 °F 65% 29.67 in 10.0 mi SSE 15.0 mph 20.7 mph N/A   Clear
8:55 PM 73.4 °F - 60.8 °F 65% 29.68 in 10.0 mi South 16.1 mph 21.9 mph N/A   Clear
9:15 PM 71.6 °F - 60.8 °F 69% 29.69 in 10.0 mi South 9.2 mph - N/A   Clear
9:35 PM 71.6 °F - 60.8 °F 69% 29.70 in 10.0 mi SSE 8.1 mph - N/A   Clear
9:55 PM 71.6 °F - 62.6 °F 73% 29.71 in 10.0 mi South 10.4 mph 17.3 mph N/A   Clear
10:15 PM 69.8 °F - 62.6 °F 78% 29.72 in 10.0 mi South 9.2 mph - N/A   Clear
10:55 PM 69.8 °F - 60.8 °F 73% 29.73 in 10.0 mi South 10.4 mph - N/A   Clear
11:15 PM 69.8 °F - 60.8 °F 73% 29.73 in 10.0 mi South 9.2 mph - N/A   Clear
11:35 PM 69.8 °F - 60.8 °F 73% 29.73 in 10.0 mi South 10.4 mph - N/A   Clear
11:55 PM 69.8 °F - 60.8 °F 73% 29.73 in 10.0 mi South 10.4 mph - N/A   Clear